Dewpoint
9 11 12 10 12 11 11 11 11 11 10 10 10 10 9 9 9 8 7 7 6 6 6 7 7 8 7 7 6 6 6 6 6 6 5 4 5 5 5 5 4 4 4 4 4 3 3 3 3 3 4 3 3 3 4 5 6 7 7 8 8 9 9 6 2 1 3 4 3 2 2 1 -1 -3 -4 -3 -3 -4 -0 -6 -7 -8 -9 -8 -8
6 9 9 8 10 11 11 11 11 11 10 9 9 9 8 8 7 3 4 5 5 4 5 5 6 6 6 5 5 4 3 4 3 3 2 2 2 3 3 4 3 2 2 2 2 2 2 1 1 1 2 2 2 2 2 3 3 4 4 5 6 6 9 4 2 1 0 2 0 1 -3 -5 -4 -7 -6 -5 -4 -4 -6 -6 -7 -9 -9 -9 -8
4 6 6 6 8 9 9 11 11 11 10 10 9 9 8 7 6 3 1 -0 2 3 3 4 5 5 5 4 4 3 2 0 -0 -1 -1 -1 -1 -0 1 1 1 1 1 1 1 1 0 -0 -1 -0 0 0 0 1 2 2 2 2 2 3 3 5 7 7 3 0 -0 -1 -0 -2 -3 -6 -8 -8 -9 -7 -6 -6 -5 -6 -7 -8 -9 -9 -9
5 5 5 5 6 5 5 7 9 10 9 9 8 8 7 6 5 2 -0 -2 -0 -0 1 3 3 3 2 2 2 2 1 0 -1 -2 -2 -3 -3 -2 -2 -1 -1 -1 -1 -1 -1 -1 -1 -2 -2 -2 -1 -1 -2 -2 -1 1 1 1 1 1 2 3 4 5 6 2 -0 -3 -3 -4 -5 -8 -10 -11 -11 -10 -8 -6 -6 -6 -7 -6 -9 -9 -9
4 4 4 5 7 6 6 7 7 8 8 7 7 6 6 3 2 -1 -2 -1 -1 -0 2 2 0 -1 -0 2 1 1 0 0 -0 -1 -3 -3 -2 -2 -2 -2 -2 -2 -2 -2 -1 -2 -2 -3 -2 -2 -1 -3 -3 -3 -3 -2 -1 -0 -1 -1 -0 1 2 3 3 1 -1 -4 -6 -6 -7 -8 -12 -12 -11 -11 -10 -7 -6 -6 -7 -7 -7 -8 -9
2 2 2 3 4 4 3 3 4 7 7 6 6 6 4 -0 -3 -1 -1 -2 -2 -1 -1 -1 -0 -0 1 1 1 0 -0 -1 -2 -3 -4 -5 -4 -3 -3 -3 -3 -3 -3 -3 -3 -2 -3 -3 -3 -3 -4 -4 -4 -4 -4 -4 -3 -3 -3 -3 -2 -0 -1 -1 -0 -1 -3 -5 -5 -7 -7 -9 -12 -12 -11 -11 -11 -9 -7 -7 -7 -6 -6 -8 -7
0 1 0 -1 -1 -1 -2 -2 2 3 5 5 4 3 1 -3 -4 -3 -1 -3 -3 -3 -2 -3 -1 0 0 -0 -1 -2 -3 -4 -6 -6 -7 -7 -6 -5 -5 -5 -4 -3 -3 -4 -3 -3 -3 -4 -4 -4 -5 -4 -5 -5 -5 -5 -5 -5 -4 -3 -3 -4 -4 -4 -3 -5 -5 -6 -7 -8 -10 -10 -11 -11 -10 -10 -10 -10 -9 -9 -10 -8 -7 -8 -9
-0 -1 -1 -2 -3 -3 -3 -1 -0 1 2 3 2 -0 -3 -4 -4 -3 -3 -4 -4 -3 -2 -0 -0 -3 -3 -3 -3 -5 -7 -7 -8 -8 -7 -7 -6 -7 -6 -5 -5 -5 -4 -4 -3 -3 -2 -2 -3 -4 -4 -5 -5 -5 -5 -6 -5 -6 -5 -5 -5 -4 -5 -6 -6 -6 -7 -8 -9 -9 -9 -9 -9 -10 -9 -9 -9 -9 -8 -9 -10 -9 -10 -9 -10
-1 -2 -3 -2 -3 -4 -3 -1 -0 1 2 2 1 -2 -3 -5 -5 -5 -4 -3 -2 -2 -1 -1 -2 -4 -6 -7 -7 -7 -7 -7 -7 -8 -8 -9 -9 -7 -6 -6 -5 -5 -6 -6 -5 -3 -2 -2 -2 -2 -1 -1 -1 -2 -3 -5 -7 -8 -6 -5 -6 -6 -7 -7 -7 -7 -8 -8 -8 -8 -8 -8 -9 -9 -9 -9 -10 -10 -9 -9 -9 -9 -9 -11 -11
0 -1 -1 -2 -5 -5 -5 -2 -2 -1 0 -0 -3 -3 -2 -4 -5 -4 -4 -5 -4 -3 -4 -2 -3 -5 -7 -8 -8 -7 -7 -6 -1 -2 -3 -9 -9 -7 -6 -6 -7 -7 -6 -7 -6 -6 -5 -3 -0 1 1 1 0 0 0 -1 -3 -5 -6 -6 -7 -7 -8 -8 -8 -8 -9 -10 -9 -9 -9 -10 -9 -9 -9 -9 -9 -9 -9 -9 -10 -10 -11 -13 -10
-0 -1 0 -4 -5 -5 -5 -5 -4 -3 -3 -4 -3 -4 -4 -4 -4 -2 -4 -5 -6 -4 -4 -4 -6 -8 -8 -8 -7 -6 -5 -4 1 7 8 3 -8 -9 -8 -7 -7 -7 -7 -7 -7 -7 -7 -7 -7 -4 -3 -2 -2 -1 -1 -0 -0 -1 -3 -3 -5 -7 -9 -10 -10 -10 -10 -10 -10 -10 -9 -10 -9 -8 -8 -8 -8 -8 -9 -9 -9 -11 -13 -16 -18
1 -1 -3 -5 -4 -4 -5 -4 -5 -5 -5 -5 -5 -6 -5 -5 -4 -4 -3 -3 -4 -6 -7 -7 -7 -7 -7 -8 -7 -7 -7 -0 8 11 10 7 -1 -6 -7 -7 -7 -7 -9 -8 -8 -8 -8 -9 -8 -8 -7 -7 -7 -6 -4 -3 -3 -2 -1 -2 -3 -4 -5 -8 -10 -10 -9 -10 -10 -10 -9 -9 -9 -8 -7 -6 -6 -7 -9 -9 -11 -12 -14 -16 -16
-0 -2 -4 -4 -5 -5 -5 -6 -6 -6 -6 -6 -5 -5 -6 -5 -6 -6 -5 -4 -6 -7 -5 -6 -6 -6 -7 -7 -8 -7 -4 0 11 12 10 9 7 -6 -8 -9 -9 -10 -11 -9 -9 -9 -9 -10 -10 -10 -9 -7 -8 -10 -9 -7 -6 -6 -5 -4 -2 -2 -2 -3 -5 -7 -8 -8 -8 -8 -9 -9 -8 -7 -6 -5 -5 -9 -10 -13 -13 -14 -15 -17 -18
-2 -3 -4 -4 -5 -6 -6 -6 -6 -7 -7 -6 -6 -5 -5 -6 -6 -6 -5 -5 -6 -5 -5 -6 -6 -6 -7 -7 -7 -7 -2 2 10 12 11 10 8 0 -11 -11 -10 -11 -10 -10 -10 -9 -10 -11 -11 -12 -13 -11 -10 -9 -9 -9 -8 -9 -8 -9 -9 -7 -6 -4 -4 -4 -5 -9 -9 -8 -7 -8 -7 -6 -5 -3 -7 -11 -14 -15 -16 -18 -19 -19 -19
-3 -3 -5 -6 -6 -6 -5 -6 -7 -7 -7 -7 -7 -7 -5 -5 -5 -5 -6 -6 -7 -7 -6 -6 -6 -5 -6 -6 -6 -4 -1 4 11 11 11 11 8 -3 -11 -11 -10 -10 -11 -11 -10 -10 -11 -12 -13 -14 -14 -12 -9 -9 -9 -9 -9 -9 -9 -9 -11 -11 -11 -10 -8 -6 -5 -8 -8 -6 -5 -5 -5 -5 -4 -8 -11 -15 -17 -16 -17 -20 -21 -21 -20
-2 -5 -5 -6 -6 -5 -6 -7 -7 -7 -6 -7 -7 -6 -5 -4 -3 -3 -5 -5 -6 -5 -5 -6 -6 -6 -5 -4 -3 -4 0 8 11 11 12 10 5 -10 -11 -12 -11 -11 -13 -13 -12 -11 -11 -11 -13 -14 -12 -10 -7 -6 -7 -8 -9 -9 -10 -11 -12 -12 -11 -6 3 5 -2 -4 -5 -5 -3 -1 3 -0 -3 -12 -17 -23 -20 -26 -27 -26 -22 -21 -21
-2 -4 -4 -5 -6 -6 -6 -7 -7 -8 -8 -7 -8 -7 -5 -4 -2 -1 -5 -6 -5 -6 -6 -3 -4 -4 -3 -2 -3 -2 3 9 10 11 10 9 -3 -11 -12 -12 -13 -13 -14 -14 -13 -12 -11 -13 -14 -13 -12 -11 -6 -5 -5 -6 -10 -10 -11 -12 -13 -13 -11 -12 -4 1 4 5 5 5 5 4 4 4 4 4 -7 -20 -27 -25 -25 -30 -23 -23 -22
-3 -5 -5 -6 -6 -7 -6 -7 -7 -7 -7 -7 -7 -6 -5 -2 -2 -2 -5 -8 -7 -7 -6 -6 -6 -4 -1 -2 1 4 6 9 10 9 8 7 -7 -13 -13 -13 -13 -12 -13 -13 -13 -12 -12 -10 -11 -14 -12 -10 -5 -5 -0 -6 -10 -11 -12 -13 -15 -15 -14 -14 -14 -14 -9 -6 -5 -6 -6 -9 -12 -10 -2 -3 -9 -14 -23 -26 -27 -30 -29 -29 -28
-5 -5 -5 -7 -7 -7 -7 -7 -7 -7 -7 -7 -7 -6 -5 -3 -2 -3 -6 -8 -7 -7 -5 -7 -6 -5 -3 -0 6 4 5 6 7 7 7 6 -5 -14 -12 -13 -14 -13 -13 -12 -11 -10 -11 -11 -10 -12 -12 -10 -9 0 3 -5 -10 -11 -12 -14 -17 -16 -15 -19 -19 -20 -22 -24 -25 -23 -23 -21 -23 -25 -21 -16 -15 -14 -26 -25 -30 -29 -28 -28 -29
-4 -7 -7 -7 -7 -7 -7 -6 -7 -7 -7 -8 -7 -7 -6 -4 -3 -5 -7 -7 -6 -8 -7 -9 -8 -4 -3 -4 -1 0 0 1 5 6 5 2 -2 -12 -14 -14 -14 -14 -12 -11 -12 -12 -12 -12 -10 -11 -12 -8 -3 1 6 2 -7 -11 -14 -15 -14 -14 -19 -18 -15 -22 -28 -27 -27 -28 -27 -26 -26 -29 -30 -30 -25 -21 -21 -24 -28 -27 -27 -29 -30
-7 -7 -8 -9 -9 -8 -8 -7 -7 -8 -9 -10 -10 -8 -7 -4 -5 -6 -7 -8 -9 -9 -9 -8 -7 -4 -4 -4 -4 -4 -3 -1 3 4 3 -0 -3 -9 -14 -15 -14 -14 -13 -12 -11 -12 -12 -12 -12 -7 -7 -6 -5 -0 7 2 -4 -15 -17 -12 -11 -11 -15 -26 -21 -16 -28 -25 -27 -27 -28 -27 -28 -29 -29 -28 -25 -25 -24 -23 -25 -28 -28 -29 -29
-9 -10 -9 -9 -9 -9 -9 -10 -10 -9 -10 -8 -10 -11 -10 -7 -9 -10 -10 -10 -10 -10 -9 -8 -8 -7 -7 -7 -6 -5 -1 2 -0 2 1 0 -3 -6 -13 -15 -12 -13 -14 -14 -11 -11 -12 -11 -12 -10 -8 -6 -5 5 5 2 -3 -11 -10 -1 -3 -8 -19 -21 -25 -29 -30 -29 -30 -28 -27 -27 -25 -26 -25 -26 -26 -24 -27 -28 -28 -29 -28 -25 -25
-10 -10 -10 -10 -11 -11 -11 -11 -10 -11 -11 -10 -11 -11 -11 -11 -11 -10 -9 -11 -10 -11 -11 -10 -8 -7 -8 -9 -8 -6 -4 -1 1 -2 -0 -1 -2 -5 -8 -9 -8 -11 -15 -15 -13 -12 -11 -12 -11 -10 -7 -5 3 3 -1 -7 -6 -5 -1 -5 -8 -12 -15 -24 -22 -31 -29 -29 -28 -27 -28 -29 -26 -24 -24 -23 -23 -26 -27 -26 -27 -28 -27 -25 -24
-11 -11 -11 -11 -12 -13 -13 -13 -13 -13 -11 -11 -10 -11 -10 -10 -9 -8 -9 -9 -11 -11 -11 -9 -8 -8 -8 -7 -7 -7 -6 -5 -1 -1 -2 -1 -3 -3 -5 -6 -7 -15 -13 -16 -13 -11 -12 -13 -10 -7 -6 -3 -1 -4 -8 -8 -8 -8 -9 -9 -11 -12 -24 -24 -27 -28 -26 -28 -28 -27 -25 -28 -30 -28 -26 -24 -23 -24 -24 -26 -26 -27 -27 -26 -25
-11 -13 -13 -14 -14 -16 -15 -15 -15 -13 -14 -10 -10 -9 -8 -6 -6 -7 -7 -9 -10 -11 -11 -10 -9 -9 -9 -8 -7 -7 -6 -6 -6 -2 -1 -1 -3 -3 -4 -5 -7 -8 -13 -13 -12 -13 -10 -11 -7 -6 -8 -7 -9 -10 -10 -9 -8 -10 -9 -9 -11 -25 -26 -27 -27 -29 -28 -27 -27 -28 -28 -27 -27 -23 -24 -25 -25 -25 -28 -27 -28 -27 -26 -26 -26
-12 -14 -17 -16 -16 -15 -15 -16 -14 -14 -12 -10 -8 -9 -8 -7 -8 -8 -8 -9 -10 -10 -10 -10 -10 -9 -9 -9 -8 -8 -7 -5 -5 -5 -2 -2 -3 -3 -4 -6 -7 -8 -10 -11 -10 -11 -9 -6 -8 -10 -11 -11 -11 -13 -14 -14 -11 -12 -12 -14 -27 -23 -26 -27 -27 -28 -28 -27 -27 -25 -23 -25 -25 -26 -26 -28 -28 -26 -27 -26 -25 -25 -29 -26 -25
-12 -14 -15 -16 -17 -15 -12 -11 -11 -11 -10 -9 -9 -9 -8 -7 -7 -6 -7 -9 -10 -10 -9 -9 -9 -9 -8 -8 -9 -9 -7 -4 -5 -7 -6 -6 -7 -6 -7 -8 -8 -8 -11 -11 -9 -12 -11 -11 -12 -11 -12 -12 -12 -12 -13 -15 -19 -22 -25 -27 -26 -27 -27 -27 -27 -27 -26 -27 -26 -26 -25 -25 -27 -27 -28 -28 -27 -26 -29 -26 -27 -25 -25 -26 -28
-12 -15 -16 -14 -12 -11 -11 -10 -11 -13 -11 -8 -7 -5 -5 -6 -7 -8 -8 -9 -9 -9 -9 -8 -8 -7 -7 -6 -7 -8 -7 -5 -5 -6 -7 -8 -10 -12 -12 -13 -14 -15 -14 -16 -17 -15 -18 -12 -15 -18 -18 -18 -19 -21 -23 -25 -24 -24 -29 -31 -30 -29 -22 -16 -15 -26 -29 -30 -30 -31 -29 -29 -26 -26 -27 -29 -28 -27 -28 -29 -28 -26 -26 -27 -28
-14 -18 -18 -15 -13 -12 -12 -11 -11 -12 -12 -9 -6 -5 -5 -5 -6 -8 -9 -7 -7 -7 -8 -7 -6 -6 -6 -6 -7 -8 -7 -7 -5 -3 -5 -5 -8 -11 -13 -14 -16 -18 -13 -12 -17 -19 -20 -22 -21 -19 -20 -21 -21 -22 -24 -26 -25 -27 -30 -29 -30 -34 -34 -31 -28 -28 -29 -30 -28 -28 -25 -28 -26 -28 -27 -26 -26 -27 -30 -29 -28 -30 -27 -32 -29
-16 -16 -16 -16 -16 -12 -12 -12 -12 -11 -11 -10 -7 -6 -6 -3 -5 -8 -9 -4 -3 -3 -4 -7 -7 -6 -5 -5 -6 -6 -7 -6 -3 -2 -2 -3 -5 -7 -9 -9 -11 -15 -10 -11 -13 -21 -22 -22 -22 -21 -20 -22 -22 -23 -24 -27 -27 -26 -27 -20 -26 -30 -28 -28 -30 -30 -28 -28 -29 -29 -26 -28 -27 -27 -27 -26 -25 -27 -29 -24 -28 -31 -31 -29 -29
-15 -16 -15 -16 -14 -14 -14 -14 -13 -12 -11 -10 -8 -8 -8 -5 -2 -2 -3 -4 -3 -2 -1 -1 -2 -3 -4 -5 -4 -3 -3 -3 -2 -1 -1 -2 -3 -5 -6 -7 -9 -10 -10 -11 -18 -21 -21 -20 -20 -22 -22 -24 -24 -24 -26 -27 -27 -28 -28 -28 -29 -28 -26 -28 -29 -27 -27 -28 -28 -29 -29 -30 -28 -27 -27 -26 -26 -25 -25 -29 -31 -31 -31 -29 -29
-14 -15 -15 -16 -14 -13 -15 -14 -13 -12 -11 -10 -8 -8 -8 -10 -10 -4 -2 -2 -2 -2 -1 -1 -1 -1 -1 -2 -4 -4 -2 -2 -2 -1 -1 -1 -2 -4 -5 -5 -6 -8 -8 -9 -19 -21 -22 -21 -20 -21 -23 -24 -23 -25 -27 -29 -29 -30 -31 -29 -25 -27 -28 -27 -27 -29 -30 -30 -30 -28 -29 -29 -29 -28 -28 -27 -27 -27 -27 -27 -28 -28 -28 -30 -29
-14 -16 -17 -16 -15 -13 -15 -14 -12 -10 -10 -9 -10 -10 -11 -12 -12 -13 -8 -2 -2 -2 -1 -1 -1 -0 -0 -0 -1 -3 -3 -2 -2 -1 -1 -1 -2 -3 -4 -4 -5 -7 -7 -12 -20 -22 -22 -22 -21 -22 -23 -23 -23 -27 -28 -30 -30 -30 -31 -30 -28 -28 -29 -27 -28 -31 -29 -30 -29 -29 -30 -30 -29 -29 -29 -28 -30 -28 -27 -28 -27 -28 -29 -29 -27
-13 -14 -15 -15 -16 -16 -14 -12 -11 -10 -10 -11 -11 -12 -13 -13 -14 -13 -13 -12 -7 -3 -2 -1 -1 -1 -1 -0 -0 -1 -1 -1 -1 -1 -1 -1 -1 -2 -3 -4 -3 -5 -8 -13 -17 -17 -20 -22 -21 -21 -22 -24 -26 -28 -28 -28 -29 -29 -29 -29 -29 -30 -29 -32 -33 -29 -30 -30 -32 -31 -31 -32 -31 -30 -29 -28 -29 -30 -29 -28 -28 -29 -28 -28 -28
-13 -12 -12 -13 -16 -15 -14 -12 -11 -10 -12 -12 -12 -12 -13 -14 -13 -12 -13 -12 -11 -10 -8 -5 -2 -1 -1 -1 -1 -1 -1 -2 -1 -2 -1 -1 -1 -2 -2 -5 -7 -8 -8 -14 -16 -16 -19 -19 -19 -20 -23 -25 -25 -28 -28 -28 -29 -29 -29 -29 -30 -31 -30 -30 -30 -30 -30 -32 -32 -32 -31 -30 -31 -31 -30 -29 -29 -29 -28 -28 -28 -29 -29 -28 -28
-14 -15 -16 -14 -14 -15 -14 -13 -12 -12 -12 -13 -13 -14 -14 -14 -13 -13 -12 -11 -10 -10 -10 -7 -6 -2 -1 -1 -1 -1 -1 -2 -2 -2 -1 -1 -2 -2 -6 -9 -11 -12 -13 -14 -16 -17 -19 -19 -21 -20 -23 -24 -27 -27 -28 -28 -28 -30 -31 -32 -29 -29 -30 -28 -29 -30 -31 -32 -31 -30 -28 -31 -31 -31 -33 -32 -32 -31 -29 -29 -29 -28 -28 -28 -28
-16 -17 -18 -17 -16 -15 -13 -12 -11 -11 -11 -13 -14 -15 -14 -14 -14 -14 -13 -12 -11 -10 -9 -10 -9 -8 -6 -7 -4 -2 -2 -2 -2 -2 -2 -2 -2 -4 -7 -10 -12 -13 -16 -16 -19 -19 -19 -18 -20 -22 -23 -24 -25 -25 -29 -29 -29 -31 -27 -29 -31 -30 -30 -31 -29 -29 -30 -29 -30 -32 -32 -30 -30 -33 -34 -31 -29 -29 -29 -29 -29 -28 -27 -27 -26
-16 -16 -17 -18 -16 -13 -12 -12 -12 -11 -13 -15 -15 -15 -15 -15 -14 -13 -12 -12 -11 -11 -11 -10 -8 -10 -10 -10 -5 -5 -5 -3 -3 -3 -3 -3 -5 -6 -8 -11 -14 -15 -15 -17 -18 -19 -18 -18 -22 -22 -22 -25 -24 -27 -29 -30 -31 -31 -30 -32 -31 -29 -24 -25 -27 -31 -32 -32 -31 -32 -33 -30 -31 -32 -33 -32 -30 -29 -29 -29 -29 -29 -28 -27 -28
-19 -14 -13 -12 -12 -15 -15 -15 -15 -15 -15 -15 -15 -15 -15 -15 -15 -14 -13 -12 -12 -11 -12 -12 -11 -11 -10 -10 -9 -7 -6 -7 -7 -8 -7 -6 -8 -9 -11 -14 -17 -18 -20 -21 -22 -22 -22 -20 -21 -24 -24 -27 -24 -26 -29 -28 -32 -32 -32 -33 -32 -33 -32 -32 -31 -31 -33 -31 -30 -32 -32 -30 -31 -32 -33 -32 -31 -30 -30 -30 -29 -29 -29 -29 -28
-18 -19 -15 -12 -14 -14 -14 -15 -15 -16 -15 -15 -15 -15 -15 -14 -15 -15 -14 -13 -12 -12 -12 -12 -12 -12 -11 -11 -11 -9 -9 -10 -10 -10 -10 -11 -12 -13 -14 -15 -17 -18 -19 -21 -22 -23 -24 -23 -24 -26 -24 -28 -26 -26 -28 -31 -30 -31 -34 -33 -32 -30 -29 -32 -29 -31 -29 -30 -31 -30 -30 -30 -30 -31 -32 -32 -31 -31 -30 -29 -28 -28 -28 -28 -28
-20 -19 -14 -12 -13 -15 -15 -16 -16 -16 -15 -14 -14 -15 -15 -14 -14 -14 -14 -13 -13 -13 -13 -13 -12 -11 -11 -12 -10 -10 -10 -11 -11 -12 -12 -12 -13 -14 -15 -16 -17 -18 -18 -19 -19 -21 -22 -24 -26 -24 -25 -25 -28 -28 -31 -33 -32 -33 -32 -31 -32 -30 -30 -31 -31 -31 -30 -30 -30 -30 -30 -30 -30 -31 -30 -29 -26 -26 -28 -27 -28 -28 -28 -28 -28
-19 -18 -17 -16 -15 -15 -16 -16 -16 -14 -15 -15 -15 -14 -14 -14 -14 -14 -14 -14 -14 -13 -13 -13 -13 -12 -12 -11 -10 -9 -11 -12 -13 -13 -14 -14 -15 -15 -15 -16 -17 -17 -17 -17 -18 -19 -22 -25 -25 -27 -25 -26 -28 -31 -33 -34 -33 -34 -32 -32 -31 -30 -30 -28 -30 -30 -30 -29 -29 -30 -30 -29 -29 -29 -28 -24 -28 -29 -29 -29 -29 -29 -29 -29 -28
-18 -18 -18 -17 -17 -17 -17 -16 -16 -16 -16 -16 -15 -15 -14 -13 -14 -13 -14 -14 -14 -14 -13 -14 -13 -13 -13 -12 -12 -12 -11 -13 -16 -15 -15 -15 -15 -16 -16 -16 -16 -17 -17 -19 -21 -23 -24 -26 -27 -27 -28 -27 -29 -29 -29 -29 -33 -33 -33 -32 -29 -29 -29 -28 -29 -29 -31 -31 -30 -30 -30 -30 -29 -30 -30 -29 -29 -29 -29 -29 -29 -29 -29 -28 -28
-18 -18 -18 -17 -17 -17 -16 -17 -16 -15 -15 -15 -14 -14 -14 -13 -13 -13 -13 -14 -14 -14 -14 -13 -14 -14 -14 -14 -14 -14 -13 -13 -14 -15 -16 -16 -17 -17 -17 -17 -18 -19 -19 -22 -24 -26 -27 -27 -27 -27 -30 -30 -30 -33 -31 -30 -32 -31 -31 -30 -29 -28 -28 -28 -28 -28 -30 -29 -28 -28 -29 -29 -29 -29 -29 -28 -29 -30 -29 -29 -29 -29 -28 -28 -28
-21 -20 -19 -20 -19 -18 -18 -16 -16 -16 -15 -15 -15 -14 -14 -13 -13 -13 -13 -13 -14 -14 -13 -13 -14 -14 -15 -15 -15 -15 -14 -14 -15 -16 -16 -16 -17 -18 -18 -19 -20 -21 -22 -24 -26 -29 -29 -27 -28 -30 -30 -30 -30 -30 -29 -29 -32 -31 -30 -29 -29 -27 -26 -26 -26 -29 -31 -31 -29 -29 -29 -29 -29 -29 -29 -29 -29 -29 -29 -29 -29 -28 -29 -29 -29
-21 -21 -19 -19 -19 -19 -18 -18 -17 -17 -16 -16 -16 -15 -14 -13 -13 -13 -13 -13 -13 -14 -14 -13 -14 -14 -15 -15 -15 -16 -16 -15 -16 -16 -16 -16 -17 -17 -19 -20 -22 -23 -25 -24 -28 -29 -28 -29 -30 -29 -29 -29 -30 -31 -29 -31 -30 -30 -31 -31 -28 -27 -26 -26 -29 -30 -30 -31 -30 -30 -30 -30 -29 -29 -28 -28 -28 -28 -29 -29 -29 -29 -29 -29 -29
-20 -21 -20 -20 -20 -19 -18 -18 -17 -18 -17 -16 -16 -15 -15 -14 -13 -14 -14 -13 -13 -14 -13 -13 -14 -15 -15 -15 -16 -16 -16 -16 -16 -16 -17 -17 -18 -18 -20 -22 -22 -25 -26 -27 -30 -29 -30 -29 -30 -29 -29 -30 -30 -30 -30 -30 -32 -29 -31 -29 -29 -28 -28 -28 -29 -30 -30 -30 -31 -32 -31 -30 -29 -29 -28 -28 -29 -29 -29 -29 -29 -29 -29 -28 -28
-21 -21 -21 -20 -20 -20 -20 -19 -19 -18 -17 -16 -16 -16 -16 -15 -14 -14 -14 -13 -14 -14 -13 -13 -14 -14 -16 -15 -16 -16 -17 -17 -17 -17 -17 -18 -19 -19 -21 -24 -24 -25 -29 -30 -31 -31 -30 -31 -31 -31 -30 -30 -29 -29 -29 -30 -31 -29 -30 -29 -29 -29 -28 -27 -29 -30 -31 -32 -32 -32 -31 -30 -30 -29 -29 -29 -29 -29 -29 -29 -28 -28 -28 -28 -28
-22 -22 -22 -21 -21 -21 -20 -19 -18 -17 -17 -16 -16 -16 -16 -15 -15 -14 -14 -14 -14 -14 -14 -14 -14 -15 -16 -16 -17 -17 -17 -18 -18 -18 -18 -19 -20 -21 -22 -24 -27 -28 -31 -30 -31 -32 -30 -31 -30 -30 -31 -31 -30 -30 -29 -29 -28 -29 -29 -29 -28 -27 -27 -26 -27 -28 -27 -28 -30 -30 -30 -30 -30 -30 -29 -29 -29 -29 -29 -29 -29 -29 -28 -28 -28
-23 -22 -22 -21 -20 -21 -19 -18 -17 -17 -17 -16 -16 -16 -16 -16 -15 -15 -15 -14 -14 -14 -14 -14 -14 -15 -16 -17 -18 -18 -18 -19 -19 -19 -20 -20 -20 -22 -23 -25 -28 -30 -30 -31 -30 -31 -33 -33 -33 -33 -31 -31 -31 -30 -30 -29 -29 -28 -29 -28 -26 -26 -26 -26 -26 -26 -26 -28 -28 -28 -29 -29 -29 -29 -29 -29 -29 -29 -30 -29 -29 -28 -28 -28 -28
-22 -22 -21 -21 -21 -20 -19 -19 -18 -17 -17 -17 -16 -16 -16 -16 -16 -16 -15 -15 -15 -15 -15 -15 -15 -15 -16 -16 -18 -18 -19 -19 -19 -20 -20 -20 -22 -23 -24 -27 -27 -31 -31 -32 -32 -32 -33 -33 -32 -32 -32 -30 -29 -29 -29 -29 -29 -28 -27 -26 -26 -26 -25 -25 -26 -25 -25 -25 -28 -27 -28 -28 -29 -29 -28 -28 -28 -29 -29 -28 -28 -29 -28 -28 -28